Tracking 19854 objects as of 22-Sep-2019
HD Live streaming from Space Station
objects crossing your sky now

SL-16 DEB

Track SL-16 DEB now!
10-day predictions


NORAD ID: 39879
Int'l Code: 1993-016BD
Perigee: 736.1 km
Apogee: 917.3 km
Inclination: 71.0 °
Period: 101.3 minutes
Semi major axis: 7197 km
RCS: 0.0122 m2 (small)
Launch date: March 26, 1993
Source: Commonwealth of Independent States (former USSR) (CIS)
Launch site: TYURATAM MISSILE AND SPACE COMPLEX (TTMTR)

Note: This is SATELLITE DEBRIS
aabbcc
Your satellite tracking list
Your tracking list is empty




NASA's NSSDC Master Catalog

Two Line Element Set (TLE):
1 39879U 93016BD  19261.19495549 +.00001191 +00000-0 +52041-3 0  9997
2 39879 070.9850 085.7039 0125852 304.9384 175.0521 14.21713423273699
Source of the keplerian elements: AFSPC